Regional Weather Roundup
Issued by NWS Upton, NY

Current Version | Previous Version | Text Only | Print | Product List | Glossary On
Versions: 1 2 3 4 5 6 7 8 9 10 11 12 13 14 15 16 17 18 19 20 21 22 23 24 25 26 27 28 29 30 31 32 33 34 35 36 37 38 39 40 41 42 43 44 45 46 47 48 49 50
000 ASUS41 KOKX 281304 RWROKX REGIONAL WEATHER ROUNDUP NATIONAL WEATHER SERVICE NEW YORK NY 900 AM EDT SAT MAY 28 2016 NOTE: "FAIR" INDICATES FEW OR NO CLOUDS BELOW 12,000 FEET WITH NO SIGNIFICANT WEATHER AND/OR OBSTRUCTIONS TO VISIBILITY. NYZ071-072-176-178-NJZ106-104-281400- NEW YORK CITY METRO AREA CITY SKY/WX TMP DP RH WIND PRES REMARKS CENTRAL PARK SUNNY 76 60 57 VRB6 30.15R LAGUARDIA APRT PTSUNNY 78 66 66 SW7 30.12R KENNEDY INTL MOSUNNY 74 62 66 SW12 30.14R NEWARK/LIBERTY PTSUNNY 79 63 57 SW10 30.12S BRNX BOT. GARD N/A N/A N/A N/A W8 30.14R TETERBORO SUNNY 78 62 57 VRB6 30.11R $$ NYZ177-179-078>081-281400- LONG ISLAND NEW YORK CITY SKY/WX TMP DP RH WIND PRES REMARKS FARMINGDALE SUNNY 73 60 63 SW7 30.13S ISLIP MOSUNNY 73 61 65 SW8 30.12F SHIRLEY SUNNY 72 61 68 SW9 30.13S RIVERHEAD N/A 75 64 69 NW5 30.11F WESTHAMPTON SUNNY 70 59 68 SW12 30.15R EAST HAMPTON FAIR 67 59 75 SW8 30.13R MONTAUK POINT N/A 68 60 75 SW6 30.14S $$ NYZ052-065-067-281400- HUDSON VALLEY CITY SKY/WX TMP DP RH WIND PRES REMARKS WHITE PLAINS SUNNY 77 66 68 VRB6 30.12R NEWBURGH SUNNY 77 70 78 MISG 30.12S MONTGOMERY SUNNY 79 70 74 SW8 30.10S POUGHKEEPSIE SUNNY 79 68 69 SW7 30.09S ALBANY MOSUNNY 77 67 71 S5 30.10R $$ NJZ001-105-106-008-010-013-015-019>022-104-281400- NEW JERSEY CITY SKY/WX TMP DP RH WIND PRES REMARKS NEWARK/LIBERTY PTSUNNY 79 63 57 SW10 30.12S TETERBORO SUNNY 78 62 57 VRB6 30.11R CALDWELL SUNNY 77 65 66 W3 30.13R MORRISTOWN PTSUNNY 77 66 69 SW7 30.13R SOMERVILLE SUNNY 76 65 68 VRB6 30.12R SUSSEX SUNNY 76 67 73 SW10 30.13R ANDOVER N/A 76 67 73 VRB3 30.14R TRENTON SUNNY 76 64 66 SW9 30.14R MILLVILLE SUNNY 75 63 66 VRB6 30.17R ATLANTIC CITY SUNNY 76 63 64 SW7 30.17R WRIGHTSTOWN SUNNY 76 64 65 SW10 30.13R TOMS RIVER SUNNY 79 61 53 SW12 30.15S BELMAR SUNNY 76 63 64 W9 30.16R $$ PAZ047>061-062-071-281400- EASTERN PENNSYLVANIA CITY SKY/WX TMP DP RH WIND PRES REMARKS PHILADELPHIA PTSUNNY 75 61 61 SW10 30.16R ALLENTOWN SUNNY 76 66 71 S3 30.15R SCRANTON SUNNY 77 66 68 SW6 30.15R $$ CTZ002-004>006-009-010-012-RIZ004-006-007-MAZ004-011-015-281400- SOUTHERN NEW ENGLAND IN CT CITY SKY/WX TMP DP RH WIND PRES REMARKS BRADLEY INTL CLOUDY 72 63 73 S5 30.10R HARTFORD PTSUNNY 75 64 68 S5 30.10S DANBURY SUNNY 76 67 73 SW6 30.13R WTRBRY/OXFORD NOT AVBL BRIDGEPORT SUNNY 73 59 61 SW8 30.11S MERIDEN SUNNY 75 63 66 S6 30.11S NEW HAVEN SUNNY 70 59 68 S9 30.11S CHESTER FAIR 73 63 68 VRB6 30.13R GROTON MOSUNNY 72 62 71 SW10 30.12R WILLIMANTIC CLOUDY 76 63 64 S5 30.11S IN RI CITY SKY/WX TMP DP RH WIND PRES REMARKS PROVIDENCE PTSUNNY 77 63 61 W7 30.10F BLOCK ISLAND SUNNY 64 58 80 SW22G31 30.14 WESTERLY SUNNY 70 57 63 SW9 30.13R IN MA CITY SKY/WX TMP DP RH WIND PRES REMARKS BOSTON PTSUNNY 77 64 64 VRB6 30.08R WORCESTER CLOUDY 72 64 76 W10 30.12S WESTFIELD CLOUDY 68 62 81 S3 30.10S PROVINCETOWN SUNNY 68 59 73 S9 30.09S NANTUCKET MOSUNNY 64 58 80 SW18 30.14S $$ ANZ330-335-338-340-345-350-353-355-281400- COASTAL MARINE OBSERVATIONS STATION/POSITION TIME SKY/WX TEMP WIND PRES VSBY WAVE AIR SEA DIR/SP/G HT/PER (UTC) (F) (DEG/KT/KT) (MB) (MI) (FT/S) NY HARB ENTRANCE 1150 60 58 200/ 8/ 10 1020.0 2/ 5 20S FIRE ISLAND 1150 61 58 210/ 12/ 14 1020.3 3/ 5 GREAT SOUTH BAY 1200 65 68 240/ 14/ 17 N/A 23 SSW MONTAUK P 1250 60 56 230/ 14/ 16 1020.2 3/ 6 15 E BARNEGAT LI 1222 59 N/A 3/ 5 HUDSON CANYON 1150 60 57 1021.9 3/ 5 KINGS POINT 1200 70 60 1019.6 EXECUTION ROCKS NOT AVBL CENTRAL LI SOUND 1200 63 250/ 6/ 8 N/A 1/ 3 EASTERN LI SOUND 1200 63 54 230/ 2/ 4 N/A ROBBINS REEF 1200 72 250/ 5/ 7 1019.2 $$ >>>>>>>>>>>>>>>>>>>>>>>>>>>> KEY <<<<<<<<<<<<<<<<<<<<<<<<<<< > < > SKY/WX - SKY CONDITION/PRESENT WEATHER < > TMP - TEMPERATURE IN FAHRENHEIT < > DP - DEWPOINT IN FAHRENHEIT < > RH - RELATIVE HUMIDITY IN PERCENT < > WIND - DIRECTION AND SPEED IN MPH < > PRES - MEAN SEA LEVEL PRESSURE IN INCHES OF HG < > WCI - WIND CHILL INDEX < > VSB - VISIBILITY IN MILES < > HX - HEAT INDEX < > TC - TEMPERATURE IN CELSIUS < > VRB - VARIABLE WIND DIRECTION < > < >>>>>>>>>>>>>>>>>>>>>>>>>>>> KEY <<<<<<<<<<<<<<<<<<<<<<<<<<<

USA.gov is the U.S. government's official web portal to all federal, state and local government web resources and services.